Location: Norton
(51.3000°N, 0.8167°E)
Time: 17:57:03
(UTC+00:00)

COSMOS 2428 - Pass Details

Date: 03 March 2021
Orbit: 845 x 858 km, 70.9° (Epoch: 13 April)

Event Time Altitude Azimuth Distance (km) Brightness Sun altitude
Rises 19:17:57 0° 171° (S) 3,393 5.7 -15.9°
Reaches altitude 10° 19:20:42 10° 160° (SSE) 2,464 4.8 -16.3°
Enters shadow 19:24:47 27° 114° (ESE) 1,587 3.6 -16.9°
Exits shadow 19:32:04 - 40° (NE) 3,152 5.4 -18.0°
Sets 19:32:50 0° 37° (NE) 3,425 5.6 -18.2°
